Aswan, Egypt

9:24 PM EET on September 26, 2016 (GMT +0200)
Aswan International

Weather History for HESN - December, 2012

Change the Weather History Date:

Monday, December 10, 2012

  Actual Average Record
Temperature  
Mean Temperature 67 °F -  
Max Temperature 78 °F 75 °F 87 °F (2005)
Min Temperature 56 °F 54 °F 49 °F (2013)
Cooling Degree Days 2    
Growing Degree Days 17 (Base 50)    
Moisture  
Dew Point 37 °F    
Average Humidity 34    
Maximum Humidity 52    
Minimum Humidity 16    
Precipitation  
Precipitation 0.00 in - - ()
Sea Level Pressure  
Sea Level Pressure 30.00 in    
Wind  
Wind Speed 6 mph ()    
Max Wind Speed 10 mph    
Max Gust Speed -    
Visibility 6.0 miles    
Events      
Averages and records for this station are not official NWS values.
T = Trace of Precipitation, MM = Missing Value Source: Averaged Metar Reports

Daily Weather History Graph

Daily Weather History Graph

Search for Another Location

Airport or City:

Trip Planner

Search our weather history database for the weather conditions in past years. The results will help you decide how hot, cold, wet, or windy it might be!

Date:

Astronomy

Dec. 10, 2012 Rise Set
Actual Time 6:20 AM EET 5:02 PM EET
Civil Twilight 5:56 AM EET 5:27 PM EET
Nautical Twilight 5:28 AM EET 5:55 PM EET
Astronomical Twilight 5:00 AM EET 6:23 PM EET
Moon 2:54 AM EET (12/10) 2:24 PM EET (12/10)
Length of Visible Light 11h 30m
Length of Day
10h 41m
Waning Crescent, 12% of the Moon is Illuminated
Dec 10
Waning Crescent
Dec 13
New
Dec 20
First Quarter
Dec 28
Full
Jan 5
Last Quarter

Hourly Weather History & Observations

Time (EET) Temp. Dew Point Humidity Pressure Visibility Wind Dir Wind Speed Gust Speed Precip Events Conditions
12:00 AM 64.4 °F 30.2 °F 28% 29.98 in - NNW 10.4 mph - N/A   Clear
1:00 AM 62.6 °F 32.0 °F 32% 29.98 in - North 9.2 mph - N/A   Clear
2:00 AM 61 °F 33 °F 23% 29.97 in 6 mi North 8.1 mph - -  
2:00 AM 60.8 °F 33.8 °F 36% 29.98 in - North 8.1 mph - N/A   Clear
3:00 AM 59.0 °F 33.8 °F 39% 29.95 in - North 6.9 mph - N/A   Clear
4:00 AM 57.2 °F 33.8 °F 41% 29.95 in - North 6.9 mph - N/A   Clear
5:00 AM 57.2 °F 37.4 °F 48% 29.98 in - North 6.9 mph - N/A   Clear
6:00 AM 57.2 °F 39.2 °F 51% 30.01 in - North 5.8 mph - N/A   Clear
7:00 AM 57.2 °F 39.2 °F 51% 30.01 in - Calm Calm - N/A   Clear
8:00 AM 60 °F 42 °F 41% 30.04 in 6 mi Calm Calm - -   Clear
8:00 AM 60.8 °F 42.8 °F 52% 30.04 in - Calm Calm - N/A   Clear
9:00 AM 64.4 °F 41.0 °F 42% 30.04 in - North 5.8 mph - N/A   Clear
10:00 AM 68.0 °F 42.8 °F 40% 30.04 in - North 6.9 mph - N/A   Clear
11:00 AM 71.6 °F 39.2 °F 31% 30.04 in - North 6.9 mph - N/A   Clear
12:00 PM 75.2 °F 33.8 °F 22% 29.98 in - NNW 8.1 mph - N/A   Clear
1:00 PM 75.2 °F 39.2 °F 27% 29.98 in - North 6.9 mph - N/A   Clear
2:00 PM 77 °F 40 °F 16% 29.94 in 6 mi North 5.8 mph - -   Clear
2:00 PM 77.0 °F 35.6 °F 22% 29.95 in - NNW 6.9 mph - N/A   Clear
6:00 PM 75.2 °F 39.2 °F 27% 29.98 in - NW 9.2 mph - N/A   Clear
7:00 PM 71.6 °F 39.2 °F 31% 30.01 in - NNW 5.8 mph - N/A   Clear
8:00 PM 69 °F 41 °F 25% 30.03 in 6 mi North 6.9 mph - -  
8:00 PM 68.0 °F 41.0 °F 37% 30.04 in - North 6.9 mph - N/A   Clear
9:00 PM 66.2 °F 37.4 °F 35% 30.04 in - NNW 8.1 mph - N/A   Clear
10:00 PM 64.4 °F 30.2 °F 28% 30.06 in - NW 5.8 mph - N/A   Clear
11:00 PM 62.6 °F 30.2 °F 30% 30.06 in - NNW 5.8 mph - N/A   Clear